Regional Weather Roundup
Issued by NWS Grand Forks, ND

Home | Current Version | Previous Version | Text Only | Print | Product List | Glossary Off
Versions: 1 2 3 4 5 6 7 8 9 10 11 12 13 14 15 16 17 18 19 20 21 22 23 24 25 26 27 28 29 30 31 32 33 34 35 36 37 38 39 40 41 42 43 44 45 46 47 48 49 50

000
ASUS43 KFGF 231731
RWRFGF
PRAIRIE TO PINES  WEATHER ROUNDUP
NATIONAL WEATHER SERVICE EASTERN NORTH DAKOTA/GRAND FORKS ND
1200 PM CDT WED APR 23 2014

 **SATELLITE DATA USED TO AUGMENT SKY COVER AT AUTOMATED STATIONS**
 *****  WEATHER ACROSS EASTERN NORTH DAKOTA  *****

CITY           SKY/WX    TMP DP  RH WIND       PRES   REMARKS
GRAND FORKS    LGT RAIN  44  38  79 SE18      29.88R
GRAND FRKS AFB LGT RAIN  44  42  95 SE13      29.87S
GRAND FRKS NWS   N/A     43 N/A N/A SE23        N/A
DEVILS LAKE    CLOUDY    43  37  81 SE20      29.76F
FARGO          LGT RAIN  44  40  85 SE22G29   29.86S FOG
WAHPETON ARPT  CLOUDY    41  37  87 SE23      29.87F
$$

 ***** WEATHER ACROSS CENTRAL AND WESTERN NORTH DAKOTA  *****

CITY           SKY/WX    TMP DP  RH WIND       PRES   REMARKS
BISMARCK       PTSUNNY   57  38  48 SE33G41   29.56S
MINOT          LGT RAIN  49  41  74 SE28G38   29.57S
JAMESTOWN      CLOUDY    50  43  77 SE36G44   29.71F
MINOT AFB      CLOUDY    48  46  93 SE25G38   29.58R
GARRISON         N/A     55  40  56 SE26G39   29.52F
WILLISTON      CLOUDY    58  38  47 SE18G30   29.44S
DICKINSON      CLOUDY    55  36  48 S20G28    29.44R
HETTINGER      CLOUDY    53  39  59 SE9       29.48R
$$

 *****  OTHER AIRPORT OBSERVATIONS IN OUR AREA  *****

CITY           SKY/WX    TMP DP  RH WIND       PRES   REMARKS
WALHALLA         N/A     48  32  53 SE21      29.87R
GRAFTON AIRPOR CLOUDY    45  39  81 S16G28    29.89R HAZE
VALLEY CITY AR PTSUNNY   46  43  87 SE29G39   29.76S
CANDO          CLOUDY    41  41 100 SE20G25   29.77F
CAVALIER APRT  CLOUDY    48  32  53 S21       29.88R
GWINNER        CLOUDY    45  43  93 SE30G38   29.77F
ROLLA          LGT RAIN  41  41 100 SE25G33   29.76F
 ***** THE ABOVE OBSERVATIONS ARE NON NWS ARE NOT QUALITY
       CONTROLLED AND MAY MIS-REPORT RAIN FOR SNOW...
$$

  *****  WEATHER ACROSS NORTHERN MINNESOTA  *****

CITY           SKY/WX    TMP DP  RH WIND       PRES   REMARKS
FLAG ISLAND    CLOUDY    45  27  49 SE5       30.01S
WARROAD        CLOUDY    54  30  40 SE16G22   29.98F
ROSEAU         CLOUDY    55  25  30 SE17      29.95F
HALLOCK        CLOUDY    54  30  40 SE21      29.89S
THF RVR FALLS  CLOUDY    52  25  35 SE20G26   29.91S
BAUDETTE       CLOUDY    52  25  35 S13G18    30.01F
WASKISH        CLOUDY    55  25  30 SE17G24   29.99F
CROOKSTON      LGT RAIN  43  39  87 SE12      29.91R
$$
  *****  WEATHER ACROSS CENTRAL AND WEST MINNESOTA  *****

CITY           SKY/WX    TMP DP  RH WIND       PRES   REMARKS
FOSSTON        CLOUDY    46  23  39 SE21G28   29.91F
BEMIDJI        CLOUDY    49  24  38 SE18G28   29.97F
PARK RAPIDS    CLOUDY    48  26  42 SE24G31   29.96F
ELBOW LAKE     LGT RAIN  40  38  93 SE26G35   29.91R
WADENA         LGT RAIN  39  36  87 SE22G29   29.96R
DETROIT LAKES  LGT RAIN  43  37  81 SE22G29   29.91S
MOORHEAD       HVY RAIN  45  45 100 SE21G29   29.88R
FERGUS FALLS   LGT RAIN  41  39  93 SE24      29.89R
MORRIS MN      LGT RAIN  41  37  87 SE24      29.91R
STAPLES        CLOUDY    46  28  49 S20G31    29.98F
$$
  *****  WEATHER ELSEWHERE ACROSS MINNESOTA  *****

CITY           SKY/WX    TMP DP  RH WIND       PRES   REMARKS
DULUTH         CLOUDY    47  26  44 SE9       30.11S
INTRNTL FALLS  CLOUDY    52  23  32 SE13G20   30.05F
ELY            PTSUNNY   52  19  28 SE10G16   30.08F
CLOQUET        CLOUDY    46  25  42 E8        30.09F
WHEATON        LGT RAIN  45  43  93 SE23G31   29.90F
BRAINERD       CLOUDY    53  26  35 SE15G24   30.03F
HIBBING        PTSUNNY   53  24  32 S12G21    30.08F
ALEXANDRIA     LGT RAIN  39  36  87 SE21G30   29.94F
SAINT CLOUD    LGT RAIN  44  34  67 SE9       30.04F
MINNEAPOLIS    CLOUDY    47  28  47 S16       30.08F
$$

  *****  WEATHER ACROSS SOUTH DAKOTA  *****

CITY           SKY/WX    TMP DP  RH WIND       PRES   REMARKS
SIOUX FALLS    CLOUDY    53  36  52 SE26G40   29.75F
BROOKINGS      NOT AVBL
WATERTOWN      CLOUDY    45  36  70 SE17G30   29.79S
HURON          CLOUDY    59  36  42 SE24G44   29.64F
SISSETON         N/A     42  40  92 SE23G32   29.83F
ABERDEEN       PTSUNNY   48  38  68 SE25G43   29.67F
MITCHELL       PTSUNNY   64  39  39 SE32G43   29.67F
PIERRE         PTSUNNY   62  40  44 SE23G36   29.52R
MOBRIDGE       CLOUDY    50  41  71 SE22G33   29.53S
RAPID CITY     CLOUDY    62  44  51 N8        29.52R
$$

  *****  SOME WEATHER IN NEARBY STATES *****

CITY           SKY/WX    TMP DP  RH WIND       PRES   REMARKS
GLASGOW MT     CLOUDY    46  37  71 NW22G30   29.51R
GREAT FALLS MT MOSUNNY   46  22  38 W32G40    29.65R
CHEYENNE WY    SUNNY     56  28  34 W25G37    29.70S
SCOTTSBLUFF NE PTSUNNY   64  30  27 NW25G36   29.63R
OMAHA NE       TSTM      50  43  77 SE28G33   29.83F
DES MOINES IA  LGT RAIN  50  38  63 SE15G21   30.01F
DAVENPORT IA   PTSUNNY   49  29  46 SE9       30.16S
CHICAGO IL     MOSUNNY   47  25  42 NE10      30.17F
EAU CLAIRE WI  CLOUDY    48  24  39 SE13      30.13F
LA CROSSE WI   CLOUDY    50  29  44 SW12      30.14R
$$

  *****  SOME NATIONAL WEATHER *****

CITY           SKY/WX    TMP DP  RH WIND       PRES   REMARKS
LA GUARDIA NY  PTSUNNY   54  35  48 NW24G32   29.58F
RALEIGH NC     MOSUNNY   66  30  26 NW9G21    29.87F
ATLANTA GA     SUNNY     70  38  31 N12       29.97S
NEW ORLEANS LA MOSUNNY   79  62  56 VRB6      29.99F
OKLAHOMA CITY  MOSUNNY   80  56  43 S25G31    29.85F
ALBUQUERQUE NM MOSUNNY   68  23  18 SW14G25   29.88F
SALT LAKE CITY MOSUNNY   45  24  43 NW9       30.03R
LOS ANGELES CA PTSUNNY   64  45  49 VRB3      29.96F
BOISE ID       CLOUDY    48  28  46 CALM      30.03R
SEATTLE WA     PTSUNNY   49  43  80 S12       29.90F
$$

*** WEATHER ACROSS MANITOBA...SASKATCHEWAN AND ONTARIO ***
                ***ONTARIO***

CITY           SKY/WX    TMP DP  RH WIND       PRES   REMARKS
GERALDTON      PTSUNNY   45  23  42 W6        30.11S
THUNDER BAY    MOSUNNY   52  23  32 N3        30.13F
SIOUX LOOKOUT  PTSUNNY   50  21  32 S3        30.08F
TORONTO        MOSUNNY   45  27  49 N21G28    29.94S
BIG TROUT LK   SUNNY     43  19  39 S6        30.12S
PICKLE LAKE    MOSUNNY   48  21  34 E5        30.08F
DRYDEN         SUNNY     48  21  34 SE10      30.07F
KENORA         PTSUNNY   50  23  34 SE9       30.04S
$$
                *** MANITOBA***

CITY           SKY/WX    TMP DP  RH WIND       PRES   REMARKS
BRANDON        CLOUDY    46  36  66 SE17G24   29.80S
DAUPHIN        SUNNY     46  36  66 SE22G28   29.83F
ISLAND LAKE    MOSUNNY   50  43  76 S6        30.06S
PILOT MOUND      N/A     41  37  87 SE20        N/A
THE PAS        CLOUDY    45  28  53 E14G20    29.97R
THOMPSON       MOSUNNY   36  25  64 NE12      30.15S
WINNIPEG       CLOUDY    54  27  35 SE21G28   29.93F
LYNN LAKE      SUNNY     32  21  64 E13G20    30.16R WCI  22
CHURCHILL      CLOUDY    21  18  86 NW13G18   30.30R WCI   9
GILLAM         PTSUNNY   28  27  93 NE13      30.22S WCI  18
$$
                ***SASKATCHEWAN***

CITY           SKY/WX    TMP DP  RH WIND       PRES   REMARKS
ESTEVAN        LGT RAIN  46  43  87 SE25G32   29.52S
KINDERSLEY     LGT RAIN  43  41  93 SE20G28   29.37
LLOYDMINSTER   LGT RAIN  43  36  75 E25G33    29.46S
PRINCE ALBERT  CLOUDY    50  34  53 E23       29.69R
REGINA         LGT RAIN  45  43  93 E24G33    29.52F
YORKTON        CLOUDY    46  36  66 E18G24    29.69F
N. BATTLEFORD  RAIN      43  39  87 SE24G32   29.52R FOG
LA RONGE       PTSUNNY   46  32  57 E13G23    29.88S
SASKATOON      RAIN      43  39  87 E22G31    29.54S FOG
SWIFT CURRENT  LGT RAIN  41  39  93 W10       29.42F
$$
NOTE: THESE ARE AUTOMATED STATIONS WITH LIMITED QUALITY CONTROL
      "FAIR" INDICATES FEW OR NO CLOUDS BELOW 12,000 FEET WITH NO
      SIGNIFICANT WEATHER AND/OR OBSTRUCTIONS TO VISIBILITY.
      SKY/WX - SKY CONDITION AND SIGNIFICANT WEATHER.
      TMP - AIR TEMPERATURE.    DP   - DEWPOINT TEMPERATURE.
      RH  - RELATIVE HUMIDITY.  PRES - PRESSURE.
      HX  - HEAT INDEX.         WCI  - WIND CHILL INDEX.
$



USA.gov is the U.S. government's official web portal to all federal, state and local government web resources and services.